Ljubljana Jože Pučnik Airport

Jump to: basic info | weather | frequencies | runways | comments

Related pages: nearby airports | nearby navaids | notams | map

Basic information (top)

Codes: LJU LJLJ
Location: lon 46.223701, lat 14.457600, elev 1,273 ft / 388 m msl
Status: large_airport
Scheduled airline service: yes
Links: Wikipedia Mobile

Weather (top)

Current conditions (rec'd 2014/12/18 19:00Z):

LJLJ 181900Z 00000KT 0700 R30/1600U FG VV002 04/04 Q1020 NOSIG

Airport forecast (rec'd 2014/12/18 15:03Z):

TAF LJLJ 181400Z 1815/1915 VRB02KT 3500 BR OVC003 PROB30 
      TEMPO 1815/1818 6000 NSW SCT003 PROB40 1900/1909 0350 FG VV001 
      BECMG 1909/1912 12005KT 9999 NSW FEW030

Frequencies (top)

Verify before use: may be inaccurate or out of date.

A/D: 135.275 MHz (APP)
ATIS: 128.175 MHz (also on VOR DOL 112.700)
GND: 121.625 MHz ()
HANDLING & GA: 131.4 MHz ()
TWR: 118 MHz (TWR)

Runways (top)

13/31: 10,827 x 148 ft (3,300 x 45 m) — paved — lighted

Latest comments (top)

I wish more were like that: It's small, it's cosy, it's convenient. ... [read]

an experience: I too managed to land here from ... [read]

Small airport without hassles: Managed to land here in a snowstorm in ... [read]

More... (top)

See also NOTAMs and nearby airports and navaids, or visit the Ljubljana Jože Pučnik Airport page at the main OurAirports website..